SCP
-0 -0 -0 -0 -0 0 0 0 0 0 0 0 0 0 0 0 0 0 0 0 0 0 0 0 0 0 0 0 0 0 0 0
-0 -0 0 0 0 0 0 0 0 0 0 0 0 0 0 0 0 0 0 0 0 0 0 0 0 0 0 0 0 0 0 0
0 0 0 0 0 0 0 -0 0 0 0 0 0 0 0 0 0 0 0 0 0 0 0 0 0 0 0 0 0 0 0 0
0 0 0 0 0 0 0 0 0 -0 0 0 0 0 0 0 0 0 0 0 0 0 0 0 0 0 0 0 0 0 0 0
0 0 0 0 0 0 0 0 0 0 0 0 0 0 0 0 0 0 0 0 0 0 0 0 0 0 0 0 0 0 0 0
0 0 0 0 0 0 0 0 0 0 0 0 0 0 0 0 0 0 0 0 0 0 0 0 0 0 0 0 0 0 0 0
0 0 0 0 0 0 0 0 0 0 0 0 0 0 0 0 0 0 0 0 0 0 0 0 0 0 0 0 0 0 0 0
0 -0 0 0 0 0 0 0 0 0 0 0 0 0 0 0 0 0 0 0 0 0 0 0 0 0 0 0 0 0 0 0
-0 0 0 0 0 0 0 0 0 0 0 0 0 0 0 0 0 0 0 0 0 0 0 0 0 0 0 0 0 0 0 0
-0 -0 -0 -0 -0 -0 0 0 0 0 0 0 0 0 0 0 0 0 0 0 0 0 0 0 0 0 0 0 0 0 0 0
-0 -0 -0 -0 -0 -0 -0 -0 -0 -0 0 0 0 0 0 0 0 0 0 0 0 0 0 0 0 0 0 0 0 0 0 0
-0 -0 -0 -0 -0 -0 -0 0 -0 -0 -0 -0 -0 0 0 0 0 0 0 0 0 0 0 0 0 0 0 0 0 0 0 0
0 -0 -0 -0 -0 -0 -0 -0 -0 0 0 -0 -0 -0 0 0 0 0 0 0 0 0 0 0 0 0 0 0 0 0 0 0
0 0 0 -0 -0 -0 -0 -0 -0 -0 -0 0 -0 -0 0 0 0 0 0 0 0 0 0 0 0 0 0 0 0 0 0 0
0 0 0 0 0 -0 -0 -0 -0 -0 -0 -0 -0 -0 0 0 0 0 0 0 0 0 0 0 0 0 0 0 0 0 0 0
0 0 0 0 0 0 -0 -0 -0 -0 -0 -0 -0 0 0 0 0 0 0 0 0 0 0 0 0 0 0 0 0 0 0 0
0 0 0 0 0 0 0 -0 -0 -0 -0 -0 -0 0 0 0 0 0 0 0 0 0 0 0 0 0 0 0 0 0 0 0
0 0 0 0 0 0 0 0 0 0 0 0 0 0 0 0 0 0 0 0 0 0 0 0 0 0 0 0 0 0 0 0
0 0 0 0 0 0 0 0 0 0 0 0 0 0 0 0 0 0 0 0 0 0 0 0 0 0 0 -0 0 0 0 0
0 0 0 0 0 0 0 0 0 0 0 0 0 0 0 0 0 0 0 0 0 0 0 0 0 0 0 -0 0 0 0 0
Wind_Speed_500mb
67 61 64 59 51 43 44 47 42 43 48 53 60 68 81 87 94 94 89 87 86 86 88 95 93 90 88 88 83 81 77 74
66 55 45 37 38 49 53 53 51 56 61 65 67 72 78 86 90 92 91 92 91 90 89 90 94 95 94 92 86 85 83 81
53 55 52 53 44 43 47 47 46 55 61 68 76 80 78 82 86 91 97 96 94 92 93 94 93 98 101 100 94 91 90 88
59 66 67 65 65 55 43 44 49 53 53 56 61 70 80 81 86 90 95 103 102 100 99 98 99 101 106 104 100 94 90 93
68 73 74 77 78 72 65 55 54 51 57 61 59 59 64 76 82 91 94 97 104 104 104 101 103 103 111 109 106 98 95 95
64 75 81 81 82 85 84 76 71 65 59 58 63 59 59 61 67 81 90 96 100 99 105 105 109 112 116 115 108 103 103 100
66 71 77 80 79 81 88 88 85 80 73 66 60 55 62 61 64 71 78 90 94 102 101 108 112 117 119 116 112 109 108 106
59 65 72 78 84 88 87 88 86 84 80 74 66 60 54 55 60 70 72 79 90 97 104 104 110 117 118 118 114 111 112 111
68 69 69 71 78 85 85 90 91 88 87 84 81 68 63 61 55 58 64 70 77 87 98 101 109 111 114 117 113 112 114 114
61 65 70 74 77 87 90 91 93 93 91 83 85 86 71 63 65 55 60 63 71 80 87 93 103 105 111 113 118 116 116 110
67 69 72 76 81 88 96 100 102 101 102 100 83 83 83 69 58 56 55 59 67 73 79 81 89 93 99 108 116 110 111 105
72 76 81 81 86 95 100 105 107 108 107 103 99 82 74 77 70 57 54 51 58 61 71 76 81 74 88 98 109 104 106 107
74 82 84 88 91 101 104 104 109 113 113 106 101 95 79 69 70 69 59 57 50 55 64 69 66 61 75 86 99 94 94 96
82 89 97 101 98 106 114 107 113 117 116 115 109 102 91 77 71 67 67 65 61 55 59 64 60 59 71 84 88 86 90 91
89 99 111 109 109 111 116 113 112 114 121 114 111 105 89 86 77 73 68 69 73 71 63 62 65 65 76 90 84 78 78 70
88 101 116 115 117 118 118 114 115 113 114 115 105 101 94 78 82 83 73 68 72 78 78 72 72 74 78 87 95 95 86 75
98 98 112 112 121 117 112 106 104 109 106 103 96 93 89 80 78 82 76 67 69 73 77 77 68 62 63 81 93 94 88 74
98 97 104 110 117 110 104 95 90 90 91 90 88 86 83 78 65 77 74 65 68 64 64 70 66 65 54 63 94 85 81 83
100 97 97 101 103 96 90 84 83 83 83 83 83 82 80 76 69 70 72 71 62 63 63 66 60 55 52 52 85 80 84 92
95 95 94 94 96 88 83 83 82 81 81 78 77 81 79 72 65 70 71 66 62 59 61 61 58 48 54 67 98 95 105 93
Wind_Direction_500mb
334 346 343 336 335 342 348 334 315 294 281 271 263 257 253 248 247 248 248 248 245 243 239 236 234 233 234 236 237 237 238 238
335 347 341 328 323 323 325 315 308 305 296 286 275 260 253 252 252 250 249 249 248 245 242 238 234 232 233 234 235 236 237 237
6 1 360 0 352 334 329 326 316 307 300 293 287 283 276 270 262 256 252 251 248 247 244 241 238 236 234 234 232 232 234 237
356 359 357 354 355 352 346 336 328 318 302 294 291 285 280 277 270 263 260 254 249 246 243 242 240 238 236 235 234 233 235 237
358 355 352 351 349 350 349 349 343 333 323 310 299 292 286 282 275 270 264 258 254 250 247 245 243 240 238 235 234 233 234 235
353 352 350 347 342 342 342 340 343 344 340 329 312 295 285 282 279 273 268 264 258 251 248 246 243 241 237 234 234 234 233 232
347 349 348 343 340 336 336 336 334 336 339 339 328 306 292 284 279 274 273 268 262 257 252 249 246 244 240 237 234 233 232 231
339 345 343 337 335 333 331 333 333 330 331 333 337 332 317 291 278 272 268 267 263 259 254 252 250 245 241 238 235 234 232 229
338 337 335 331 332 329 330 329 328 328 326 322 325 332 333 323 296 282 274 266 264 261 257 253 250 246 241 240 237 233 232 231
328 328 329 333 334 331 330 327 324 324 323 322 320 319 322 327 321 301 282 270 262 258 255 252 250 245 240 237 235 230 228 228
319 320 324 328 328 328 329 329 326 322 318 318 318 313 310 313 312 311 293 277 267 261 256 254 251 246 241 236 234 228 226 224
312 314 317 322 323 323 324 324 323 319 314 312 310 306 300 298 303 298 291 291 275 268 262 256 248 243 238 231 234 229 226 223
305 307 309 313 314 315 316 320 318 316 310 307 305 304 301 296 288 291 285 278 278 264 258 252 247 239 227 213 229 228 228 226
304 304 305 309 309 309 311 312 311 309 307 303 300 299 297 294 292 282 282 274 266 260 254 251 244 228 217 207 221 228 226 225
303 303 304 306 305 304 306 306 305 302 301 299 298 296 295 292 284 281 272 271 268 262 255 250 242 228 215 205 213 221 230 221
296 297 300 302 301 302 302 303 301 300 297 296 295 294 293 287 282 277 276 270 268 270 263 253 246 238 225 214 205 215 219 217
296 295 297 299 300 300 300 300 298 296 294 294 294 291 289 286 279 277 273 277 270 266 263 262 260 252 241 223 207 214 214 208
298 296 296 296 299 301 302 301 297 292 292 290 289 289 288 284 277 270 276 269 269 263 248 256 256 253 244 221 202 208 203 208
299 299 301 304 303 306 306 301 296 294 291 289 287 287 286 283 275 265 266 272 270 254 239 239 244 240 236 210 196 195 200 209
308 305 306 304 304 310 308 304 300 296 290 287 282 282 284 280 267 261 263 268 267 256 245 230 227 218 212 195 192 192 197 202
Wind_Speed_850mb
67 61 64 59 51 43 44 47 42 43 48 53 60 68 81 87 94 94 89 87 86 86 88 95 93 90 88 88 83 81 77 74
66 55 45 37 38 49 53 53 51 56 61 65 67 72 78 86 90 92 91 92 91 90 89 90 94 95 94 92 86 85 83 81
53 55 52 53 44 43 47 47 46 55 61 68 76 80 78 82 86 91 97 96 94 92 93 94 93 98 101 100 94 91 90 88
59 66 67 65 65 55 43 44 49 53 53 56 61 70 80 81 86 90 95 103 102 100 99 98 99 101 106 104 100 94 90 93
68 73 74 77 78 72 65 55 54 51 57 61 59 59 64 76 82 91 94 97 104 104 104 101 103 103 111 109 106 98 95 95
64 75 81 81 82 85 84 76 71 65 59 58 63 59 59 61 67 81 90 96 100 99 105 105 109 112 116 115 108 103 103 100
66 71 77 80 79 81 88 88 85 80 73 66 60 55 62 61 64 71 78 90 94 102 101 108 112 117 119 116 112 109 108 106
59 65 72 78 84 88 87 88 86 84 80 74 66 60 54 55 60 70 72 79 90 97 104 104 110 117 118 118 114 111 112 111
68 69 69 71 78 85 85 90 91 88 87 84 81 68 63 61 55 58 64 70 77 87 98 101 109 111 114 117 113 112 114 114
61 65 70 74 77 87 90 91 93 93 91 83 85 86 71 63 65 55 60 63 71 80 87 93 103 105 111 113 118 116 116 110
67 69 72 76 81 88 96 100 102 101 102 100 83 83 83 69 58 56 55 59 67 73 79 81 89 93 99 108 116 110 111 105
72 76 81 81 86 95 100 105 107 108 107 103 99 82 74 77 70 57 54 51 58 61 71 76 81 74 88 98 109 104 106 107
74 82 84 88 91 101 104 104 109 113 113 106 101 95 79 69 70 69 59 57 50 55 64 69 66 61 75 86 99 94 94 96
82 89 97 101 98 106 114 107 113 117 116 115 109 102 91 77 71 67 67 65 61 55 59 64 60 59 71 84 88 86 90 91
89 99 111 109 109 111 116 113 112 114 121 114 111 105 89 86 77 73 68 69 73 71 63 62 65 65 76 90 84 78 78 70
88 101 116 115 117 118 118 114 115 113 114 115 105 101 94 78 82 83 73 68 72 78 78 72 72 74 78 87 95 95 86 75
98 98 112 112 121 117 112 106 104 109 106 103 96 93 89 80 78 82 76 67 69 73 77 77 68 62 63 81 93 94 88 74
98 97 104 110 117 110 104 95 90 90 91 90 88 86 83 78 65 77 74 65 68 64 64 70 66 65 54 63 94 85 81 83
100 97 97 101 103 96 90 84 83 83 83 83 83 82 80 76 69 70 72 71 62 63 63 66 60 55 52 52 85 80 84 92
95 95 94 94 96 88 83 83 82 81 81 78 77 81 79 72 65 70 71 66 62 59 61 61 58 48 54 67 98 95 105 93
Wind_Direction_850mb
334 346 343 336 335 342 348 334 315 294 281 271 263 257 253 248 247 248 248 248 245 243 239 236 234 233 234 236 237 237 238 238
335 347 341 328 323 323 325 315 308 305 296 286 275 260 253 252 252 250 249 249 248 245 242 238 234 232 233 234 235 236 237 237
6 1 360 0 352 334 329 326 316 307 300 293 287 283 276 270 262 256 252 251 248 247 244 241 238 236 234 234 232 232 234 237
356 359 357 354 355 352 346 336 328 318 302 294 291 285 280 277 270 263 260 254 249 246 243 242 240 238 236 235 234 233 235 237
358 355 352 351 349 350 349 349 343 333 323 310 299 292 286 282 275 270 264 258 254 250 247 245 243 240 238 235 234 233 234 235
353 352 350 347 342 342 342 340 343 344 340 329 312 295 285 282 279 273 268 264 258 251 248 246 243 241 237 234 234 234 233 232
347 349 348 343 340 336 336 336 334 336 339 339 328 306 292 284 279 274 273 268 262 257 252 249 246 244 240 237 234 233 232 231
339 345 343 337 335 333 331 333 333 330 331 333 337 332 317 291 278 272 268 267 263 259 254 252 250 245 241 238 235 234 232 229
338 337 335 331 332 329 330 329 328 328 326 322 325 332 333 323 296 282 274 266 264 261 257 253 250 246 241 240 237 233 232 231
328 328 329 333 334 331 330 327 324 324 323 322 320 319 322 327 321 301 282 270 262 258 255 252 250 245 240 237 235 230 228 228
319 320 324 328 328 328 329 329 326 322 318 318 318 313 310 313 312 311 293 277 267 261 256 254 251 246 241 236 234 228 226 224
312 314 317 322 323 323 324 324 323 319 314 312 310 306 300 298 303 298 291 291 275 268 262 256 248 243 238 231 234 229 226 223
305 307 309 313 314 315 316 320 318 316 310 307 305 304 301 296 288 291 285 278 278 264 258 252 247 239 227 213 229 228 228 226
304 304 305 309 309 309 311 312 311 309 307 303 300 299 297 294 292 282 282 274 266 260 254 251 244 228 217 207 221 228 226 225
303 303 304 306 305 304 306 306 305 302 301 299 298 296 295 292 284 281 272 271 268 262 255 250 242 228 215 205 213 221 230 221
296 297 300 302 301 302 302 303 301 300 297 296 295 294 293 287 282 277 276 270 268 270 263 253 246 238 225 214 205 215 219 217
296 295 297 299 300 300 300 300 298 296 294 294 294 291 289 286 279 277 273 277 270 266 263 262 260 252 241 223 207 214 214 208
298 296 296 296 299 301 302 301 297 292 292 290 289 289 288 284 277 270 276 269 269 263 248 256 256 253 244 221 202 208 203 208
299 299 301 304 303 306 306 301 296 294 291 289 287 287 286 283 275 265 266 272 270 254 239 239 244 240 236 210 196 195 200 209
308 305 306 304 304 310 308 304 300 296 290 287 282 282 284 280 267 261 263 268 267 256 245 230 227 218 212 195 192 192 197 202